Theta_e
302 302 302 302 301 301 301 301 301 300 300 300 300 299 299 299 299 298 298 298 298 297 297 297 297 297 297 296 296 296 295 295 295 294 294 294 294 294 293 293 293 293 293 293 292 292 292 292 292 292 292 292 291 291 292 292 292 293 293 293 294 294 294 294 294 294 294 294 294 294 294 294 294 294 294 294 295 295 294 295 295 295 295 295 295 296
302 302 302 302 301 301 301 301 301 300 300 300 300 299 299 299 298 298 298 298 297 297 297 297 297 297 296 296 296 295 295 295 294 294 294 294 293 293 293 293 293 293 293 293 292 292 292 292 292 292 292 292 291 291 291 292 292 292 293 293 293 293 294 294 294 294 294 294 294 294 293 293 294 294 294 294 294 294 294 294 294 294 294 295 295 295
302 302 301 301 301 301 301 301 300 300 299 299 299 299 298 298 298 298 297 297 297 297 297 296 296 296 296 296 295 295 295 294 294 294 293 293 293 293 293 292 292 292 292 292 292 292 292 292 292 292 292 291 291 291 291 291 292 292 292 293 293 293 293 293 293 293 293 293 293 293 293 293 293 293 293 293 293 293 294 294 294 294 294 294 294 294
301 301 301 301 300 300 300 300 299 299 299 298 298 298 298 297 297 297 297 297 297 297 296 296 296 296 295 295 295 294 294 294 293 293 293 293 292 292 292 292 292 292 292 292 292 292 292 292 292 292 292 291 291 291 291 291 292 292 292 293 293 293 293 293 293 293 293 293 293 293 293 293 293 293 293 293 293 293 293 293 293 293 294 294 294 294
301 301 300 300 300 300 300 299 299 298 298 298 298 297 297 297 297 297 296 296 296 296 296 295 295 295 295 294 294 294 293 293 293 293 292 292 292 292 291 291 291 291 291 292 292 292 292 292 292 292 291 291 291 291 291 291 292 292 292 292 292 293 293 292 292 292 292 292 292 292 292 292 292 292 292 292 292 293 293 293 293 293 293 293 293 294
301 300 300 299 299 299 299 299 298 298 298 297 297 297 296 296 296 296 296 295 295 295 295 295 295 294 294 294 293 293 293 292 292 292 292 292 291 291 291 291 291 291 291 291 292 292 292 292 292 291 291 291 291 291 291 291 292 292 292 292 292 292 292 292 292 292 292 292 292 292 292 292 292 292 292 292 292 292 292 292 292 292 292 293 293 293
300 300 299 299 298 298 298 298 298 297 297 297 297 296 296 295 295 295 295 295 295 294 294 294 294 294 293 293 293 293 292 292 292 291 291 291 291 291 291 290 290 291 291 291 291 291 291 291 291 291 291 291 291 291 291 291 292 292 292 292 292 292 291 291 291 292 292 292 292 292 292 292 292 292 292 292 291 291 292 292 292 292 292 292 292 292
300 299 299 298 298 298 298 298 297 297 296 296 296 295 295 295 295 295 294 294 294 294 294 294 294 293 293 293 292 292 292 291 291 291 291 291 291 290 290 290 290 290 291 291 291 291 291 291 291 291 290 290 290 291 291 292 292 292 292 292 291 291 291 291 291 291 291 292 292 292 291 291 291 291 291 291 291 291 291 291 291 291 291 291 292 292
299 299 298 298 297 297 297 297 297 296 295 295 295 295 294 294 294 294 294 294 294 294 293 293 293 293 293 292 292 292 291 291 291 291 291 290 290 290 290 290 290 290 290 290 290 291 290 290 290 290 290 290 290 291 291 291 292 292 292 291 291 291 291 291 291 291 291 291 291 291 291 291 291 291 291 291 291 291 291 290 290 291 291 291 291 291
298 298 297 297 297 296 296 296 296 296 295 294 294 294 294 294 294 294 294 294 294 293 293 293 293 293 292 292 292 291 291 291 291 290 290 290 290 290 290 290 290 290 290 290 290 290 290 290 290 290 290 290 290 290 291 291 291 291 291 291 291 291 291 291 291 291 291 291 291 291 291 291 291 291 291 291 290 290 290 290 290 290 290 290 290 290
298 297 297 296 296 296 295 295 295 294 294 294 294 294 293 293 293 293 293 293 293 293 293 293 292 292 292 291 291 291 291 291 290 290 290 290 290 290 290 290 290 290 290 290 290 290 290 290 290 290 289 290 290 290 290 291 291 291 291 291 290 291 291 291 291 291 291 291 291 291 291 291 290 290 290 290 290 290 290 290 290 290 290 290 290 290
297 296 296 295 295 295 294 294 294 294 293 293 293 293 293 293 293 293 293 293 293 293 292 292 292 291 291 291 291 290 290 290 290 290 290 290 290 290 290 290 290 290 290 290 290 290 290 290 289 289 289 289 290 290 290 290 290 290 290 290 290 290 290 290 290 290 290 290 290 290 290 290 290 290 290 290 290 290 290 290 289 289 289 289 289 290
296 295 295 295 294 294 294 294 294 293 293 293 293 293 293 293 293 293 292 292 292 292 292 291 291 291 290 290 290 290 290 290 290 290 289 290 290 290 290 290 290 290 290 290 290 289 289 289 289 289 289 289 290 290 290 290 290 290 290 290 290 290 290 290 290 290 290 290 290 290 290 290 290 290 290 290 290 289 289 289 289 289 289 289 289 289
295 295 294 294 294 294 294 293 293 293 293 292 292 292 292 292 292 292 292 292 292 291 291 291 290 290 290 290 290 290 290 289 289 289 289 290 290 290 290 290 290 290 290 290 289 289 289 289 289 289 289 289 289 289 289 289 289 289 289 289 289 290 290 290 290 290 290 290 290 290 290 290 289 289 289 289 289 289 289 289 289 289 289 289 289 289
295 294 294 294 294 293 293 293 292 292 292 292 292 292 292 292 292 291 291 291 291 291 290 290 290 290 290 290 290 290 289 289 289 289 289 290 290 290 290 290 289 289 289 289 289 289 289 289 289 289 289 289 289 289 289 289 289 289 289 289 289 289 289 289 289 289 289 289 289 289 289 289 289 289 289 289 289 289 289 289 289 289 289 289 289 290
294 293 293 293 293 293 292 292 292 291 291 291 291 291 291 291 291 291 291 291 290 290 290 290 289 289 289 289 289 289 289 289 289 289 290 290 290 290 290 290 289 289 289 289 289 289 288 288 288 288 289 289 289 289 289 289 289 289 289 289 289 289 289 289 289 289 289 289 289 289 289 289 289 289 289 289 289 289 289 289 289 289 289 289 290 290
293 293 293 293 292 292 292 291 291 291 291 291 291 291 291 291 291 290 290 290 290 289 289 289 289 289 289 289 289 289 289 289 289 289 290 290 290 290 289 289 289 289 288 288 288 288 288 288 288 288 288 288 288 288 288 288 288 289 289 289 289 289 289 289 289 289 289 289 289 289 289 289 289 289 289 288 288 288 288 289 289 289 289 289 289 289
293 292 292 292 291 291 291 291 290 290 290 290 290 290 290 290 290 290 289 289 289 289 289 289 289 289 289 289 289 289 289 289 290 290 290 290 290 289 289 289 288 288 288 288 288 288 288 288 288 288 288 288 288 288 288 288 288 288 288 288 288 288 288 288 288 288 288 288 288 288 288 288 288 288 288 288 288 288 288 289 289 289 289 289 289 289
293 292 292 291 291 290 290 290 290 290 290 290 290 290 290 290 290 289 289 289 288 288 288 288 288 289 289 289 289 289 289 290 290 290 290 290 289 289 289 288 288 288 288 288 288 288 288 288 288 288 288 288 288 288 288 288 288 288 288 288 288 288 288 288 288 288 288 288 288 288 288 288 288 288 288 288 288 288 288 288 288 288 288 288 288 288
293 292 292 291 290 290 290 290 290 290 290 290 290 290 290 289 289 289 289 288 288 288 288 288 288 288 289 289 289 290 290 290 291 290 290 289 289 288 288 288 288 288 288 288 288 288 288 288 288 288 288 288 288 288 288 288 288 288 288 288 288 288 288 288 288 288 288 288 288 288 288 288 288 288 288 288 288 288 288 288 288 288 288 288 288 288
293 292 292 291 290 290 290 290 291 291 290 290 290 289 289 289 289 288 288 288 288 288 288 288 289 289 289 290 290 290 290 291 290 290 289 288 288 288 288 288 288 288 287 287 287 287 287 287 287 288 288 287 287 288 288 288 288 288 288 288 288 288 288 288 287 288 288 288 288 288 288 288 288 288 287 287 287 287 287 287 287 287 287 287 288 288
292 292 292 291 290 290 291 291 291 291 290 290 289 289 289 289 288 288 288 288 288 288 289 289 289 290 290 290 290 291 290 290 290 289 288 288 288 288 288 288 287 287 287 287 287 287 287 287 287 287 287 287 287 287 287 288 288 288 287 287 287 287 287 287 287 287 287 287 288 288 288 287 287 287 287 287 287 287 287 287 287 287 287 287 287 287
292 291 291 291 291 291 291 291 291 290 290 289 289 289 288 288 288 288 288 288 288 289 289 289 290 290 291 291 291 290 290 290 289 288 288 288 288 287 287 287 287 287 287 287 287 287 287 287 287 287 287 287 287 287 287 287 287 287 287 287 287 287 287 287 287 287 287 287 287 287 287 287 287 287 287 287 287 287 287 287 287 287 287 287 287 287
292 292 291 291 291 291 291 291 290 290 290 289 289 288 288 288 288 288 288 288 289 289 289 289 290 291 291 291 290 290 289 289 288 288 288 288 287 287 287 287 287 287 287 287 287 287 286 287 287 287 286 287 287 287 287 287 287 287 287 287 287 287 287 287 287 287 287 287 287 287 287 287 287 287 287 287 287 287 287 287 287 286 286 286 286 286
292 292 292 291 291 291 291 290 290 289 289 289 289 288 288 288 288 288 288 289 289 289 290 290 291 291 290 290 289 289 288 288 288 288 287 287 287 287 286 286 286 286 286 287 286 286 286 286 286 286 286 286 287 287 287 287 287 287 287 287 287 287 287 287 287 287 287 287 286 286 286 286 286 286 286 287 286 286 286 286 286 286 286 286 286 286
292 291 291 291 291 290 290 289 289 289 288 288 288 288 288 288 288 289 289 289 290 290 291 291 291 290 289 289 288 288 288 288 287 287 287 286 286 286 286 286 286 286 286 286 286 286 286 286 286 286 286 286 287 287 287 287 287 287 287 287 287 287 286 286 286 286 286 286 286 286 286 286 286 286 286 286 286 286 286 286 286 286 286 286 286 286
291 291 291 290 290 290 289 289 288 288 288 288 288 288 288 289 289 289 289 290 290 290 291 290 290 289 288 288 288 288 288 287 287 287 286 286 286 286 286 286 286 286 286 286 286 286 285 285 286 286 286 286 286 287 287 287 287 287 287 287 287 287 286 286 286 286 286 286 286 286 286 286 286 286 286 286 286 286 286 286 286 286 286 286 285 285
291 291 290 290 290 289 288 288 288 288 288 288 288 289 289 289 289 289 289 289 290 290 290 289 289 288 288 288 288 287 287 287 286 286 286 286 285 285 286 286 285 285 285 285 285 285 285 285 285 285 285 286 286 286 287 287 287 287 287 287 287 286 286 286 286 286 286 286 286 286 286 286 286 286 286 286 286 286 286 286 286 285 285 285 285 285
291 290 290 290 289 288 288 288 288 288 288 288 289 289 289 289 288 289 289 289 289 289 289 289 288 288 288 287 287 287 287 286 286 286 286 285 285 285 285 285 285 285 284 284 284 285 285 285 285 285 285 285 286 286 287 287 287 287 287 287 287 286 286 286 286 286 286 286 286 286 286 286 286 286 286 286 286 286 286 286 285 285 285 284 284 284
290 290 290 289 288 288 288 288 288 288 288 288 288 288 288 288 289 289 289 289 289 289 288 288 288 287 287 287 286 286 286 286 286 286 285 285 285 285 285 285 284 284 284 284 284 284 284 285 285 284 284 285 286 287 287 287 287 287 287 286 286 286 286 286 286 286 286 286 286 286 286 286 286 286 286 286 286 286 285 285 285 285 284 284 284 284
290 289 289 288 287 287 288 288 288 288 288 288 288 288 288 289 289 289 289 289 288 288 287 287 287 287 286 286 285 285 286 286 286 286 285 285 284 284 284 284 284 283 283 283 283 283 283 284 285 285 284 285 286 287 287 287 287 286 286 286 286 286 286 286 285 285 286 286 286 286 286 286 286 286 286 286 285 285 285 285 285 284 284 284 284 284
289 288 287 287 287 288 288 288 288 288 288 288 288 288 288 289 289 289 288 288 288 287 287 286 286 286 286 286 285 285 285 286 286 285 285 284 284 284 284 283 283 283 283 282 282 282 282 282 283 284 285 285 286 287 287 287 286 286 286 285 285 286 286 285 285 285 285 286 286 286 286 286 286 286 285 285 285 285 285 284 284 284 284 284 284 284
288 287 287 287 287 288 288 288 287 287 288 288 288 288 288 288 288 288 288 287 287 286 286 286 286 286 286 285 285 285 285 285 285 285 284 284 283 283 283 283 283 282 282 282 282 281 281 281 282 283 283 284 285 286 286 286 286 286 285 285 285 285 285 285 285 285 285 285 285 286 286 285 285 285 285 285 285 285 285 284 284 284 284 284 284 284
287 287 287 287 287 287 287 287 287 288 288 288 288 288 288 288 288 287 287 286 286 286 286 286 286 286 286 285 285 285 285 285 285 285 284 283 283 283 282 282 282 282 281 281 281 281 281 281 281 281 282 284 285 286 286 286 286 285 285 285 285 285 285 285 285 285 285 285 285 285 285 285 285 285 285 285 285 284 284 284 284 284 284 284 284 284
287 287 286 286 287 287 287 287 288 288 288 289 288 288 288 287 287 286 286 286 286 286 286 286 286 285 285 285 285 285 285 285 285 285 284 283 282 282 282 282 281 281 281 280 280 280 281 281 281 281 282 283 284 286 286 285 285 285 285 285 285 284 284 285 285 285 285 285 285 285 285 285 285 285 285 285 284 284 284 284 284 284 284 284 284 284
286 286 286 286 287 287 288 288 288 288 288 288 288 287 287 287 286 286 286 286 286 286 286 286 285 285 285 285 285 285 285 285 285 285 284 283 282 282 281 281 281 281 280 280 280 280 280 281 281 281 281 282 283 284 285 286 285 285 285 285 285 284 285 285 285 284 285 285 285 285 285 284 284 284 284 284 284 284 284 284 284 284 284 284 284 283
286 286 286 287 287 288 288 288 288 288 288 287 287 287 286 286 286 286 286 286 286 286 286 286 286 285 285 285 285 285 285 285 285 285 284 283 282 281 281 281 281 280 279 280 280 280 280 281 281 281 281 282 282 283 284 285 285 285 285 285 285 285 285 285 285 284 284 284 284 284 284 284 284 284 284 284 284 284 284 284 284 284 284 284 284 283
286 286 287 287 287 288 288 288 287 287 287 287 286 286 286 286 286 286 286 286 286 286 286 286 286 285 285 285 285 285 285 286 286 285 284 283 282 281 281 280 281 280 280 280 280 280 280 280 281 281 281 282 282 282 283 284 284 284 285 285 285 285 285 285 285 284 284 284 284 284 284 284 284 284 284 284 284 284 284 284 284 284 284 284 284 284
287 287 287 287 287 287 287 286 286 286 286 286 286 286 286 286 286 286 286 286 286 286 286 286 286 286 286 286 286 286 286 286 285 285 284 283 282 281 281 280 281 281 281 280 280 280 280 280 281 281 281 281 282 283 283 283 283 283 284 285 285 285 285 285 285 284 284 284 284 284 284 283 283 283 283 283 283 283 283 284 284 284 284 284 284 284
287 287 287 286 286 286 286 286 286 286 286 286 286 286 286 286 286 286 286 286 286 286 286 286 286 286 286 286 286 286 286 285 285 284 283 283 282 282 281 281 281 281 281 281 281 281 281 281 281 281 281 281 282 282 282 283 283 283 283 283 284 285 285 285 285 284 284 284 284 283 283 283 283 283 283 283 283 283 283 283 284 284 284 283 283 283
286 286 286 286 286 286 286 286 286 286 286 286 286 286 286 286 286 286 286 286 286 286 286 286 286 286 286 286 286 286 286 285 285 284 283 283 282 282 281 281 281 281 281 281 281 281 281 281 281 281 281 281 281 281 282 283 283 283 283 283 283 285 285 285 285 284 284 284 283 283 283 283 283 283 283 283 283 283 283 283 283 284 283 283 282 282
286 286 286 286 286 286 286 286 286 286 285 285 285 285 285 285 285 285 285 286 286 286 286 286 285 286 286 286 287 286 286 285 284 284 283 283 282 282 281 281 280 280 280 280 281 281 281 281 281 281 281 281 281 281 282 283 283 283 283 283 283 284 284 285 285 284 284 283 283 283 283 282 282 282 282 282 282 283 283 284 284 283 283 282 282 282
285 285 286 286 286 286 286 286 285 285 285 285 285 285 285 285 285 285 285 286 286 286 285 285 285 285 285 286 286 286 286 285 284 283 283 282 282 282 281 281 280 280 280 280 280 280 280 280 280 281 281 281 281 281 282 282 283 284 284 284 283 283 283 284 285 284 283 283 283 283 282 282 282 282 282 282 282 283 284 284 284 283 283 282 282 282
285 285 285 285 285 285 285 285 285 285 285 285 285 285 285 285 285 285 285 285 285 285 285 285 284 284 284 285 285 286 285 285 284 283 283 282 282 281 281 281 280 280 280 280 280 280 280 280 280 281 281 281 281 281 281 282 283 284 284 284 284 283 283 283 283 283 283 283 283 282 282 282 282 282 282 282 283 283 284 285 284 284 283 283 282 282
285 285 285 285 285 284 284 284 284 284 284 285 285 285 285 285 285 285 285 285 285 285 284 284 283 283 283 284 284 284 284 284 284 283 282 282 282 281 281 281 281 280 280 280 280 280 280 281 281 281 281 281 281 281 282 282 283 284 284 284 284 283 283 283 283 283 283 283 282 282 282 282 281 282 282 282 283 284 285 285 284 284 284 283 282 282
284 284 284 284 284 284 284 284 284 284 285 285 285 285 285 285 285 285 285 284 284 284 284 283 282 282 282 282 283 283 283 284 283 283 282 282 282 281 281 281 281 281 280 280 280 280 280 280 281 281 280 281 281 282 283 283 283 284 284 284 283 283 283 283 283 283 282 282 282 282 282 281 281 281 281 282 283 284 285 284 284 284 284 283 283 282
284 284 284 284 284 284 284 284 284 285 285 285 285 285 285 285 285 284 284 284 283 283 283 282 282 281 281 281 281 281 282 282 282 282 282 282 281 281 281 281 281 281 281 281 280 280 280 281 281 281 281 281 282 283 284 284 284 283 283 283 283 283 283 283 283 282 282 282 281 281 281 281 281 281 282 283 284 284 285 284 284 284 284 283 283 282
284 284 284 284 284 284 284 284 285 285 285 285 285 285 285 284 284 284 283 283 282 282 282 282 281 281 281 281 281 281 280 281 281 281 281 281 281 281 281 281 281 282 281 281 281 281 282 282 282 282 282 282 282 283 284 284 284 283 283 283 283 283 282 282 282 282 282 281 281 281 281 280 281 281 282 283 284 284 284 285 284 284 284 284 283 282
283 283 283 284 284 284 284 284 284 285 284 285 285 285 284 284 283 283 282 282 282 281 281 281 280 280 280 281 281 281 280 280 280 280 280 281 281 281 281 281 281 281 282 282 282 282 282 283 283 283 283 283 283 283 284 284 284 283 283 283 282 282 282 282 282 281 281 281 281 281 281 281 281 281 282 282 282 283 284 284 285 285 284 284 283 283
283 283 283 284 284 284 284 284 284 284 284 284 284 284 284 283 283 282 282 281 281 281 281 280 280 280 280 280 280 280 280 280 280 280 280 280 280 280 280 281 281 281 281 281 282 282 282 283 283 284 284 284 283 283 283 283 283 283 283 283 282 282 282 281 281 281 281 281 281 281 281 281 282 282 282 281 281 282 283 284 285 285 285 284 284 283
283 283 283 283 284 284 284 284 283 283 283 283 283 283 283 283 282 282 282 281 281 281 280 280 280 279 279 280 280 280 280 279 279 279 280 280 280 280 280 280 280 280 280 280 281 281 281 281 282 283 284 284 284 283 283 283 283 283 283 283 283 282 282 281 281 281 281 281 281 281 281 282 282 282 281 281 281 282 283 284 285 285 285 285 284 283
Wind_Speed
32 33 33 34 35 36 37 37 37 38 39 39 40 39 39 38 38 37 36 35 35 35 36 36 36 36 36 36 36 36 36 36 37 37 37 37 38 38 39 39 40 40 40 40 39 39 38 37 36 36 35 36 36 36 36 36 36 36 35 35 35 34 34 34 34 34 34 34 34 34 35 35 35 35 35 35 35 35 35 36 36 36 36 36 35 35
33 34 34 35 35 36 37 38 38 38 38 39 40 39 39 38 38 37 37 36 36 36 36 36 37 37 37 37 37 37 37 37 37 37 37 38 38 39 39 40 40 40 40 40 39 38 37 37 36 36 36 37 37 38 38 38 38 37 37 37 36 36 36 36 35 35 35 35 35 35 35 36 36 36 36 36 36 36 36 36 36 36 36 35 35 35
33 34 35 35 36 36 37 38 38 38 38 39 39 39 38 38 38 38 37 37 37 37 37 37 37 37 37 37 37 37 37 37 37 37 37 38 38 39 39 40 40 41 40 40 39 38 37 37 37 37 37 38 39 39 39 39 39 39 38 38 37 37 37 36 36 36 36 36 36 36 36 36 36 36 36 36 36 36 36 35 35 35 35 35 35 35
33 34 35 35 36 37 37 37 38 38 38 38 38 38 37 37 37 38 38 38 38 37 37 37 37 37 37 38 38 37 37 37 37 37 37 37 38 38 39 40 40 41 40 40 39 38 37 37 37 38 39 39 40 40 40 40 40 39 39 38 38 37 37 37 37 37 37 36 36 36 36 36 35 35 35 36 35 35 35 35 35 35 35 35 35 35
34 34 34 35 36 37 37 37 37 37 37 37 37 36 36 36 37 37 38 38 37 37 37 37 37 37 37 37 37 37 37 37 37 37 37 37 37 38 39 39 40 40 40 40 39 39 38 38 38 39 40 41 41 41 41 41 41 40 39 39 38 38 37 37 37 36 36 35 35 35 35 35 35 35 35 35 35 35 35 35 35 35 35 35 35 35
34 34 34 35 35 36 37 37 36 36 36 36 36 36 35 36 36 36 37 37 37 37 37 36 36 36 36 36 36 36 36 36 36 37 37 37 38 38 39 39 40 40 40 40 39 39 39 39 39 40 41 42 42 42 42 41 41 40 39 38 38 37 37 36 35 35 34 34 34 34 34 34 35 35 35 36 36 36 36 35 35 35 35 35 36 36
34 34 34 35 35 36 36 36 35 34 34 34 35 36 35 35 35 35 35 35 36 36 36 36 36 35 35 35 35 35 36 36 36 37 37 37 38 38 39 39 39 39 39 39 39 38 39 39 40 41 42 42 43 42 42 41 40 39 38 37 36 36 35 34 34 33 33 33 34 34 35 35 36 36 36 36 36 37 36 36 36 36 36 36 36 36
33 34 34 34 35 36 36 35 34 33 32 32 33 34 35 35 35 34 34 34 34 34 35 35 36 35 35 35 35 36 36 36 37 37 37 37 38 38 38 38 38 38 38 37 37 38 38 39 40 41 42 43 43 42 41 40 39 38 37 36 35 34 34 33 33 33 33 34 35 35 36 36 36 37 37 37 37 37 38 38 38 37 37 36 36 36
33 34 34 34 34 34 35 35 34 31 30 30 30 31 33 34 35 35 35 34 34 33 33 35 36 36 36 36 36 36 36 36 36 36 37 37 37 37 37 37 37 36 36 36 37 37 38 39 40 42 42 43 42 42 40 39 38 37 36 35 35 34 34 34 34 34 35 35 35 36 36 37 37 38 38 38 38 38 38 39 38 38 37 36 36 36
33 33 34 34 34 33 32 33 32 31 29 28 28 29 30 31 33 34 35 35 34 34 33 34 36 37 38 38 37 36 36 36 36 35 35 35 35 35 35 35 35 35 36 36 37 38 39 40 41 42 43 42 42 41 40 39 38 37 36 36 36 35 35 35 35 35 35 36 36 37 38 38 39 39 39 39 39 39 39 39 38 38 37 37 37 37
32 33 33 33 33 32 31 30 29 29 28 28 28 29 29 29 30 32 34 36 37 37 36 36 36 37 37 38 37 37 36 36 36 35 35 34 34 34 34 34 34 35 35 37 38 40 41 42 43 43 42 42 41 40 40 39 38 38 37 37 36 36 36 36 36 36 36 37 38 38 39 40 40 40 40 40 39 39 39 39 39 38 38 38 38 37
32 32 32 32 31 30 29 29 28 28 28 28 29 30 30 30 29 30 33 36 38 39 39 38 37 36 36 36 36 36 35 35 35 35 34 34 33 33 33 33 34 35 37 39 40 41 42 43 43 42 42 41 41 40 40 39 39 38 38 38 37 37 36 36 36 36 37 38 39 39 40 40 40 40 39 39 39 39 38 38 38 38 38 37 37 37
31 31 31 30 30 29 28 28 29 29 29 28 29 29 31 31 32 32 34 36 37 38 38 38 38 37 36 34 33 33 33 33 34 34 34 33 33 32 33 34 35 37 39 40 41 42 42 43 43 42 41 41 41 40 40 39 39 39 38 38 37 36 36 36 37 37 38 39 39 40 40 39 39 39 39 38 38 37 37 37 36 36 36 36 36 36
30 30 30 29 29 29 29 28 29 29 29 29 29 30 31 33 33 34 35 37 37 37 37 37 37 37 35 33 31 30 30 32 33 34 34 33 32 32 33 35 37 38 40 41 41 42 42 42 42 42 41 41 41 40 40 39 39 39 38 37 37 36 37 37 37 38 39 39 39 39 39 39 39 38 38 37 37 36 36 36 36 36 36 36 36 36
30 29 29 30 30 30 30 29 29 30 30 30 30 31 33 34 34 35 35 36 37 37 36 36 36 36 34 31 29 28 28 30 32 34 35 34 33 32 33 37 39 40 41 41 42 42 42 41 41 42 42 41 41 40 40 40 39 39 38 37 37 37 37 38 38 38 39 39 39 39 38 38 37 37 36 36 36 36 36 37 37 37 37 36 36 36
29 29 29 30 31 31 31 30 30 31 31 32 32 32 33 34 34 35 34 35 35 35 34 34 35 35 33 31 28 27 28 30 32 34 36 36 35 34 34 37 40 42 41 41 41 42 41 41 41 41 41 41 41 40 40 39 39 39 38 37 37 37 38 38 38 38 39 39 38 38 37 36 36 36 36 36 37 37 38 38 38 37 37 37 37 37
29 29 30 31 32 32 33 32 31 31 32 32 33 33 33 33 34 34 34 34 34 33 32 31 31 32 32 33 31 29 29 32 34 35 36 37 37 36 35 37 39 41 42 41 41 41 41 41 41 41 41 41 40 40 40 39 39 38 38 38 38 38 38 38 38 38 38 37 37 36 36 35 35 36 36 37 37 38 38 38 38 38 38 38 38 39
29 30 30 31 33 33 33 33 32 32 32 33 33 34 34 33 33 33 32 32 32 31 31 31 30 30 30 31 32 32 31 32 34 35 36 37 38 37 37 37 38 40 41 42 41 41 40 41 41 41 41 41 40 40 40 39 38 38 38 38 38 38 38 38 38 37 37 36 35 35 35 35 36 36 37 37 37 38 38 38 39 39 39 39 39 39
31 31 32 32 33 34 34 33 33 33 33 33 33 34 34 34 33 32 31 31 30 30 30 30 30 30 31 33 34 34 32 31 32 33 35 37 39 39 39 38 38 40 41 42 42 41 41 42 42 42 41 41 41 40 39 39 38 38 38 38 38 38 38 38 37 36 35 35 34 35 35 35 36 36 37 37 37 38 38 38 38 38 38 38 38 38
32 32 32 32 32 33 34 34 33 32 32 33 33 33 33 33 31 30 29 28 28 27 28 29 30 32 33 35 36 35 32 30 30 32 34 37 40 41 40 38 38 39 41 42 42 42 42 42 42 42 42 41 40 40 39 39 38 38 38 38 38 38 37 36 35 34 34 34 34 34 35 35 36 37 37 37 37 38 37 37 37 37 37 37 37 37
32 32 32 31 31 32 34 34 33 33 32 32 31 31 31 30 29 28 27 26 27 27 28 30 32 34 35 37 37 34 29 27 28 31 35 38 40 41 40 38 38 39 42 43 43 42 42 43 43 42 42 41 40 39 39 39 39 39 39 38 38 36 35 33 33 32 33 33 34 35 35 36 37 37 37 37 37 36 36 36 36 37 37 37 36 36
31 32 32 31 31 32 33 34 33 32 31 30 29 28 27 27 26 26 26 26 27 29 31 33 34 36 36 36 34 31 26 26 28 32 35 38 40 42 40 38 38 40 42 43 44 44 43 43 43 42 41 40 39 39 39 39 40 39 39 37 36 34 33 32 32 32 32 33 34 35 36 36 36 36 36 36 36 36 36 36 36 36 37 37 37 37
31 31 31 31 31 32 32 32 32 30 29 27 26 25 25 24 25 26 27 28 29 31 32 34 35 36 35 33 31 28 26 27 30 33 36 37 39 42 41 39 39 41 43 44 44 44 43 42 42 41 40 39 39 40 40 40 40 39 37 36 34 32 32 31 32 32 33 34 35 35 35 35 35 35 34 35 35 35 35 35 36 36 36 36 36 36
30 31 31 31 31 31 31 31 30 28 27 26 25 24 23 23 24 26 27 28 29 31 33 34 35 35 33 30 29 28 29 30 31 33 34 35 38 40 40 40 40 41 43 44 44 43 42 41 41 40 39 40 40 40 40 40 39 38 36 34 33 32 32 32 32 33 34 35 35 35 34 34 34 34 34 34 35 35 35 35 35 35 35 35 35 35
30 31 31 31 31 30 30 29 28 26 25 24 24 24 23 24 25 26 27 28 30 31 32 33 32 31 31 30 31 32 32 32 31 32 33 34 37 40 41 40 40 40 43 43 43 42 40 40 40 40 40 40 41 40 40 39 38 37 35 34 33 33 32 33 34 34 34 34 34 34 33 33 33 34 34 34 34 34 34 33 33 33 33 32 32 32
30 31 31 30 30 29 28 27 25 24 23 22 22 22 23 24 25 26 28 28 29 30 30 29 30 31 32 32 34 35 34 33 31 31 33 34 37 40 41 40 39 39 41 42 42 40 39 39 40 41 41 41 41 40 39 38 37 36 35 34 33 33 33 33 34 34 34 34 33 33 33 33 33 33 33 33 33 33 32 32 31 31 31 31 31 31
30 30 30 29 28 27 26 24 23 21 20 19 19 19 20 22 24 26 27 27 27 28 29 30 32 33 34 34 35 36 36 35 33 32 32 33 36 38 39 38 38 38 39 41 41 40 39 39 39 40 40 40 40 40 39 38 37 36 35 34 33 32 33 33 34 34 34 34 34 33 33 33 33 33 33 33 32 32 31 30 30 30 30 31 31 32
29 29 29 28 27 25 24 22 21 20 19 18 17 17 18 21 23 25 25 25 26 27 29 30 32 33 34 36 37 38 39 37 34 32 30 31 33 35 37 37 37 37 37 39 40 41 40 38 38 38 38 39 40 40 40 38 37 35 34 32 32 32 33 34 34 34 34 34 34 33 33 33 33 33 32 32 31 31 30 30 30 30 31 32 33 34
28 28 28 27 25 23 21 20 19 18 18 18 18 19 20 21 22 23 24 24 26 28 30 32 33 34 36 38 40 41 40 36 33 30 29 30 32 34 37 37 36 36 36 37 40 41 41 38 35 34 35 38 39 40 40 38 36 34 33 32 33 34 34 35 35 35 34 34 33 33 33 33 32 32 32 32 31 31 30 30 30 31 32 33 34 35
28 28 27 26 24 21 19 18 18 17 18 19 20 20 21 21 22 23 24 25 26 29 32 34 35 36 36 37 38 38 36 34 31 29 29 32 34 36 38 36 35 34 34 34 37 39 41 40 37 34 34 37 39 40 39 37 35 33 33 34 34 35 35 35 35 35 34 33 33 32 32 32 32 32 32 32 32 32 31 31 31 32 33 34 35 36
27 27 26 24 22 20 18 18 18 19 20 21 22 22 21 21 22 23 25 26 28 30 32 34 34 34 34 33 32 32 33 34 33 32 33 34 36 37 37 35 34 33 32 32 32 33 36 40 40 39 37 38 39 39 37 35 34 33 34 34 35 36 36 36 35 35 34 33 32 32 32 32 32 32 33 33 33 33 32 31 31 31 33 34 36 37
26 25 23 22 20 19 19 20 21 22 23 23 23 22 22 23 24 25 27 28 29 30 31 32 32 33 32 31 32 33 35 37 37 36 35 35 36 37 36 34 34 33 32 31 30 30 31 36 41 43 42 41 40 38 36 34 33 33 34 34 35 36 36 36 35 34 34 33 32 32 32 32 33 33 33 34 34 33 33 32 31 31 32 34 35 37
24 22 21 20 20 20 21 22 23 24 24 23 23 23 24 25 26 27 28 29 29 29 29 30 31 33 33 33 35 37 39 40 39 37 35 35 36 37 37 35 34 34 34 33 32 31 32 35 40 43 42 41 39 37 35 34 33 33 33 34 36 36 36 36 35 34 34 33 33 33 33 33 33 34 34 35 35 34 33 32 32 31 32 33 35 36
21 20 19 20 21 22 23 23 24 23 23 24 24 25 26 27 28 28 29 28 28 29 29 30 31 33 35 36 38 39 42 42 40 38 36 35 36 37 38 37 35 34 34 34 32 32 33 34 36 39 40 41 39 37 35 33 33 33 34 35 36 36 36 35 35 34 34 34 34 34 33 34 34 35 35 36 36 35 34 34 33 32 32 32 33 35
20 20 21 21 22 22 22 23 23 24 24 25 26 27 28 28 28 28 28 29 30 30 31 31 32 33 35 36 38 41 43 43 40 38 36 35 35 36 37 37 35 33 33 33 33 33 34 33 34 35 37 39 39 37 35 33 33 33 34 35 35 35 35 34 34 34 34 34 34 34 34 34 35 35 36 36 36 36 36 35 35 34 33 33 33 33
20 21 22 22 22 22 22 23 25 26 27 28 28 28 28 28 28 29 30 31 32 33 33 34 34 34 35 36 38 41 42 42 39 37 35 34 33 34 35 35 34 33 33 33 33 33 34 34 34 34 34 36 37 38 36 34 33 34 35 35 35 35 34 34 34 34 34 35 35 34 34 34 35 36 36 37 37 37 37 37 37 36 36 35 34 33
20 21 21 21 22 23 24 25 27 28 29 29 29 28 28 29 29 31 32 33 34 35 35 36 36 36 36 36 37 38 39 38 37 35 33 31 30 31 32 33 32 31 31 32 32 33 33 35 35 35 34 33 34 35 37 36 36 37 37 37 36 35 34 33 33 34 34 35 35 34 34 35 35 36 37 38 38 39 39 39 39 38 38 37 36 34
20 20 21 22 23 24 26 27 28 29 29 29 28 28 29 30 31 33 34 35 35 36 36 36 36 36 36 36 35 35 35 35 34 33 31 29 28 28 29 31 30 29 28 29 30 30 31 32 34 34 34 34 34 35 37 37 38 39 39 37 36 35 34 33 33 33 34 34 34 34 34 35 35 36 37 38 38 39 40 40 41 41 40 39 37 35
20 21 22 23 25 26 28 29 29 29 29 28 29 30 31 32 34 34 35 36 36 36 36 36 36 36 36 35 34 34 33 33 32 31 30 28 26 26 26 27 27 26 25 24 25 26 27 29 31 32 33 35 36 37 37 38 39 39 38 38 37 35 33 33 33 33 33 34 34 35 35 35 36 36 37 37 37 38 39 41 41 41 40 39 38 37
22 23 24 26 27 28 28 29 29 29 29 29 30 31 33 34 35 35 36 36 36 36 36 36 36 36 35 34 34 33 33 32 31 30 28 26 24 23 22 23 23 22 22 21 21 22 24 27 29 31 32 34 36 37 38 39 39 37 36 37 38 37 34 33 33 33 33 33 34 35 35 36 36 36 37 36 37 38 39 41 41 40 39 38 38 38
24 25 26 27 27 28 28 28 29 29 30 31 32 33 33 34 35 35 36 36 35 35 35 35 35 35 35 34 33 32 32 31 31 29 27 25 23 21 20 19 19 19 19 20 21 22 24 27 29 31 33 34 35 37 38 39 37 36 36 36 37 37 36 34 33 33 33 33 34 34 35 36 36 37 37 37 38 39 40 40 40 39 37 35 35 35
25 26 27 27 28 28 29 29 30 30 31 32 32 33 33 34 34 35 35 35 35 35 34 34 34 34 34 34 33 32 32 31 30 29 27 24 22 20 18 17 17 18 19 21 23 24 25 27 30 32 33 34 35 36 38 38 36 35 34 35 36 36 36 35 33 32 33 34 34 34 35 36 36 37 38 39 40 40 40 39 38 36 35 34 34 33
26 27 28 29 29 30 30 31 31 31 32 32 32 32 33 33 33 34 34 34 34 33 33 33 33 33 34 34 34 33 32 31 30 28 26 24 21 19 17 16 16 16 18 21 24 26 27 28 29 31 32 32 33 35 36 37 36 35 34 33 34 35 36 35 34 33 33 34 34 34 35 36 37 38 39 40 41 40 39 37 35 34 33 33 33 33
27 28 29 30 30 30 30 30 31 31 31 32 32 32 32 31 31 32 32 32 32 32 31 31 32 32 33 34 34 34 33 31 30 28 26 23 21 19 16 15 14 15 17 20 23 26 27 29 29 29 29 30 31 33 34 35 35 35 33 32 31 31 33 34 34 35 35 35 35 35 35 36 37 39 40 41 40 39 38 36 35 34 33 33 33 32
26 27 28 29 29 29 29 29 29 30 30 31 31 31 30 30 30 30 30 30 30 30 30 30 30 31 32 33 34 34 33 32 30 28 26 23 21 18 16 14 14 14 16 18 21 23 25 28 28 28 27 29 30 32 33 34 34 33 32 30 30 31 32 33 33 34 35 35 36 36 36 37 38 40 41 40 39 38 36 35 35 35 34 33 32 32
24 25 25 26 26 27 27 28 28 29 29 29 29 29 29 28 28 28 28 28 29 29 29 29 29 30 31 33 34 34 34 33 31 29 27 24 21 19 16 14 13 14 15 17 19 20 22 24 26 27 28 29 30 31 31 30 30 31 30 29 30 31 32 32 32 33 33 34 35 36 37 37 38 39 39 39 38 37 36 35 35 35 34 33 32 32
22 23 24 25 26 26 27 27 27 28 28 28 27 27 27 26 26 26 27 27 27 28 28 28 29 29 31 32 33 33 33 33 32 30 28 25 22 19 17 15 14 14 15 16 18 19 21 22 23 24 26 28 29 29 27 26 26 27 28 29 30 31 33 33 33 32 33 34 35 36 37 37 37 37 37 37 37 37 37 36 35 34 33 32 32 32
22 23 24 25 26 26 26 26 26 26 26 26 25 25 25 25 25 26 26 26 26 27 27 28 29 30 31 32 32 32 31 31 31 30 28 25 23 21 19 17 16 15 16 17 18 19 20 21 21 21 22 23 25 26 25 24 24 25 27 28 30 31 33 33 33 33 33 34 35 35 35 35 35 34 34 35 37 38 38 37 36 34 32 32 31 32
23 24 24 25 25 25 25 24 24 23 24 24 24 24 24 24 24 24 25 25 26 26 27 28 29 30 31 31 31 31 30 30 30 29 27 25 23 22 20 19 18 18 18 19 19 20 20 21 20 19 18 18 20 22 23 24 24 25 27 28 29 30 32 33 33 33 33 34 34 33 32 32 31 31 32 33 35 37 39 38 36 35 33 31 31 31
23 23 23 23 23 23 22 22 22 22 23 23 24 24 24 24 24 24 24 25 25 26 27 27 28 29 30 31 31 30 30 29 29 28 26 24 23 22 21 20 20 20 21 21 21 21 22 22 21 19 16 15 16 18 20 23 25 26 27 28 28 29 30 32 32 32 32 33 32 31 31 30 30 30 31 32 34 36 38 38 37 35 34 32 32 32
22 21 21 21 21 21 21 21 22 22 23 23 23 24 24 24 24 24 24 24 25 26 26 27 28 29 29 30 30 29 29 28 27 27 26 24 22 22 21 20 21 21 22 23 23 23 23 24 24 22 18 14 13 15 18 21 24 27 28 28 27 27 29 30 31 31 31 31 31 30 30 30 30 30 31 32 34 36 38 38 37 36 35 33 33 33
Wind_Direction
298 300 302 304 306 309 310 312 314 316 317 319 320 321 322 323 323 324 324 325 326 327 327 328 328 328 329 329 329 329 328 328 327 327 326 326 325 325 325 325 325 326 326 325 324 323 322 321 320 320 320 321 321 322 322 321 321 319 318 317 316 314 313 311 310 308 306 305 304 303 302 302 302 301 301 300 299 298 297 296 296 295 295 295 295 295
297 300 302 304 306 308 310 312 314 316 317 319 320 321 322 322 322 323 324 325 326 327 327 328 328 328 328 328 328 327 327 326 325 325 324 324 323 323 323 323 324 324 324 324 323 322 321 320 320 320 321 321 322 323 322 322 321 319 318 316 315 314 313 311 310 308 306 305 304 303 302 302 301 300 299 299 298 298 298 297 297 296 296 296 295 295
297 299 302 304 306 308 310 312 314 316 317 318 319 320 321 321 322 323 324 325 326 327 327 328 328 328 327 327 326 326 325 324 323 323 322 321 321 321 321 321 322 322 323 323 322 321 320 320 320 321 322 322 323 323 322 321 320 318 317 315 314 312 311 309 308 307 305 304 303 302 301 300 300 300 299 299 299 299 299 298 298 297 297 296 296 295
297 299 302 304 306 307 309 312 314 316 317 318 319 319 320 321 322 322 324 325 326 327 327 327 327 327 326 325 325 324 323 322 321 320 319 318 318 318 318 318 319 320 321 322 321 321 321 321 321 322 323 323 323 323 321 320 319 317 315 313 312 310 308 307 305 304 303 302 302 301 301 301 301 301 301 301 300 300 300 300 299 298 298 297 296 295
297 299 301 303 305 307 310 312 314 315 316 317 318 319 320 321 322 323 325 326 326 327 326 326 325 325 324 323 322 321 320 319 318 317 316 315 315 315 315 316 317 319 320 321 321 321 321 322 322 323 323 323 322 321 320 319 317 316 314 312 310 308 307 305 304 303 303 303 303 303 303 303 304 303 303 302 302 301 301 300 299 299 298 297 296 295
296 298 300 302 304 306 309 311 313 315 316 317 318 319 320 321 322 323 324 324 324 324 324 324 323 322 321 320 319 318 317 316 314 313 313 312 312 313 314 315 317 318 319 320 321 321 322 322 322 323 322 322 321 320 319 318 317 316 314 312 310 309 307 306 306 305 305 305 305 306 306 306 306 305 304 303 302 301 300 300 299 298 297 297 296 295
296 297 299 301 304 306 308 310 313 315 316 318 319 319 320 321 321 321 321 321 321 321 321 321 320 319 318 317 316 314 313 312 311 310 310 310 311 312 313 315 316 317 318 319 320 320 321 321 321 321 320 320 319 319 319 318 317 316 315 314 312 311 310 309 309 308 309 308 309 308 308 307 306 305 303 302 301 301 300 299 299 298 298 297 297 296
295 297 299 301 304 306 308 310 312 315 317 318 318 319 319 319 319 318 318 318 318 318 318 318 317 315 314 313 312 310 309 308 308 308 309 310 311 312 313 314 315 316 317 317 318 318 318 318 318 317 317 318 318 318 318 318 318 317 317 316 315 314 313 312 312 312 311 311 310 309 308 307 305 304 303 302 301 301 300 300 300 300 299 299 298 297
294 296 299 301 303 306 308 309 312 314 316 316 316 316 316 316 316 316 316 315 315 315 314 314 313 312 310 309 309 308 307 307 307 308 309 310 311 312 313 314 315 315 315 315 315 315 314 314 314 314 315 316 317 318 318 319 319 319 318 317 317 316 315 315 314 314 313 312 310 309 307 306 305 304 303 303 303 302 302 302 302 301 300 300 299 298
294 296 299 301 303 305 306 308 311 313 313 313 312 311 311 312 313 314 314 313 312 312 311 310 309 309 308 308 308 307 307 308 308 308 309 310 311 312 313 313 314 314 313 313 312 312 311 311 312 313 315 316 317 318 319 319 320 319 319 318 318 317 317 316 315 314 312 311 309 308 307 306 305 305 305 305 304 304 304 303 303 302 301 300 300 299
294 296 299 301 303 304 305 306 308 309 309 309 308 308 308 309 310 311 310 310 310 310 309 308 307 307 307 308 308 308 309 309 309 310 310 311 312 312 313 312 312 312 311 310 309 309 310 312 313 314 316 316 317 318 319 319 319 319 319 319 318 317 316 315 314 312 310 309 308 307 307 307 306 306 306 306 306 305 304 304 303 302 302 301 300 300
293 296 298 299 301 301 302 303 304 305 305 306 306 307 307 308 308 307 306 306 307 308 308 308 307 307 306 307 308 309 310 310 310 311 312 312 313 313 312 311 310 310 310 309 309 310 312 313 315 315 316 316 317 317 318 318 318 318 318 318 317 316 315 313 311 309 308 307 307 307 307 307 307 307 306 306 305 305 304 303 303 303 302 302 302 302
293 295 296 297 297 297 298 299 300 302 303 303 304 305 306 307 306 305 304 304 305 306 307 307 307 306 306 307 308 310 311 311 311 311 312 312 312 312 311 309 309 309 309 309 310 311 313 314 315 316 316 316 317 317 317 317 317 317 317 316 315 314 312 310 309 308 307 306 306 306 306 306 306 306 306 305 305 305 304 304 304 304 304 304 304 304
292 293 294 294 294 294 295 296 298 299 300 302 303 303 304 305 306 305 304 304 305 306 306 305 305 305 307 308 309 310 311 312 312 312 311 311 311 310 310 309 309 309 310 310 310 311 313 315 315 315 316 316 316 316 316 316 315 315 315 313 312 311 309 308 307 306 306 306 305 305 306 306 306 306 306 306 306 306 306 306 306 306 306 306 305 305
290 291 291 291 291 292 293 295 296 298 300 301 303 304 305 305 306 305 305 304 305 306 306 305 305 305 306 308 310 311 312 312 312 312 311 310 310 310 310 310 310 310 311 311 311 312 313 314 314 314 315 315 315 315 315 314 314 313 312 311 309 309 308 307 306 305 305 305 305 305 306 306 306 306 307 307 308 308 308 308 308 308 307 306 305 304
288 288 288 289 290 291 293 294 296 298 300 302 303 304 304 304 305 305 304 303 304 304 304 305 306 307 307 308 310 311 313 313 313 312 312 310 310 311 311 311 311 311 311 310 311 311 312 313 313 313 313 313 313 313 313 312 312 311 310 309 308 308 307 306 305 305 305 305 306 306 307 307 307 308 308 309 309 309 309 308 308 307 306 305 304 303
286 286 287 288 289 292 294 296 297 298 300 302 303 304 303 303 303 303 302 301 301 302 302 303 305 306 307 309 310 312 316 316 315 313 312 310 310 311 311 311 311 310 310 310 310 311 312 312 312 312 312 312 312 312 311 310 310 309 309 309 308 307 307 306 306 306 306 306 307 307 308 308 309 309 309 309 308 308 307 307 306 305 304 303 302 301
285 285 287 288 290 292 295 296 298 299 301 303 304 304 304 303 302 301 299 298 298 299 300 301 302 303 304 306 309 314 319 319 317 315 312 309 308 310 312 312 310 309 309 309 310 311 311 311 311 310 310 310 310 310 310 310 309 309 310 309 309 308 307 307 307 307 307 307 308 308 309 309 309 309 308 307 307 306 305 304 303 302 302 301 300 300
285 287 288 289 292 294 296 297 298 300 302 303 303 303 303 302 302 300 298 297 297 297 299 300 301 302 303 305 310 316 322 321 317 313 310 308 308 309 312 312 310 309 308 309 310 310 310 310 310 310 310 309 310 310 310 310 310 311 310 310 309 309 308 308 308 308 308 309 309 309 309 309 308 307 307 306 305 304 304 303 303 302 302 302 302 302
287 288 289 291 293 295 296 298 300 302 303 303 303 302 301 302 301 300 299 299 299 299 301 302 303 304 307 310 314 319 323 321 316 311 309 307 307 309 311 311 310 308 308 308 309 310 310 309 309 310 310 310 310 311 311 311 312 311 311 311 310 310 310 310 310 310 310 310 310 309 309 308 307 306 305 305 305 304 305 305 305 305 305 305 304 304
287 289 290 292 294 295 297 299 301 303 303 303 302 301 300 301 301 301 301 302 303 305 306 307 308 310 313 314 317 320 321 318 313 311 309 308 307 308 310 311 310 308 307 308 309 310 310 310 309 310 310 311 311 312 312 312 312 312 312 312 312 312 312 312 312 311 311 310 310 309 307 307 306 306 306 307 307 308 308 308 308 307 307 306 305 304
287 289 291 293 294 295 297 300 301 302 302 301 299 298 298 299 300 302 304 306 308 310 311 311 313 315 316 315 315 316 316 313 311 311 309 307 305 306 309 310 309 307 306 307 309 311 310 310 310 311 311 311 312 312 312 312 313 313 313 314 314 314 314 313 313 311 310 309 308 308 307 308 308 309 310 311 311 311 311 310 309 308 307 306 305 304
287 289 291 293 294 296 298 299 301 301 300 298 296 295 296 297 299 303 306 309 311 313 314 315 316 316 314 312 310 309 309 309 309 309 307 304 303 304 308 309 308 307 306 308 310 311 311 311 311 311 311 311 311 311 312 313 314 315 316 316 316 315 314 313 311 310 309 308 309 310 311 312 313 313 314 313 313 312 311 310 309 308 307 306 306 305
287 289 291 293 295 297 299 300 300 300 299 297 296 295 296 299 302 306 310 313 314 316 317 317 315 311 307 305 303 303 304 306 307 306 305 302 300 302 306 308 308 307 307 309 311 312 311 311 310 309 309 309 310 311 313 314 316 317 317 317 316 315 313 311 310 309 310 311 313 315 316 317 317 316 316 315 314 313 312 311 310 309 308 307 307 306
289 291 293 296 298 299 300 300 300 300 299 298 298 299 301 305 309 312 314 314 315 314 313 309 304 301 300 300 300 301 303 305 305 305 303 301 301 302 305 307 307 307 308 310 311 311 310 309 308 308 308 308 310 313 315 316 317 317 317 316 315 313 312 311 311 312 315 317 319 320 320 320 319 318 318 317 316 316 315 314 313 312 311 310 309 308
293 295 297 299 300 301 301 301 300 298 297 298 300 304 308 312 312 311 309 309 308 306 302 298 295 296 297 299 301 302 304 305 305 304 304 302 301 303 305 307 308 308 308 309 310 309 308 307 307 307 309 310 313 315 317 317 317 317 316 315 315 314 313 314 316 318 321 322 323 323 323 322 321 321 320 320 319 319 318 317 317 316 316 315 314 313
295 296 298 299 299 299 298 297 295 294 294 296 299 304 307 306 303 300 298 299 298 295 293 293 295 297 299 300 301 303 305 306 306 306 305 304 302 302 305 307 308 308 308 308 307 307 306 305 306 308 310 313 315 316 317 317 317 317 317 317 317 318 318 320 322 323 324 325 325 326 326 325 325 324 324 323 323 323 322 322 322 322 321 320 319 319
294 295 295 296 296 295 293 291 290 289 291 294 295 294 291 290 289 290 290 291 290 289 289 293 296 298 300 300 301 303 304 305 306 308 308 305 302 301 304 307 308 307 308 307 307 307 307 306 307 309 311 313 315 316 316 316 317 318 320 321 322 323 323 324 325 325 326 327 327 328 328 328 328 328 327 327 327 327 327 327 327 326 325 323 322 322
293 294 294 294 293 292 290 288 287 286 286 285 284 281 280 282 284 285 286 288 288 289 291 294 296 298 299 301 302 303 304 306 308 310 309 306 302 301 304 306 307 307 308 308 309 309 308 307 307 309 310 312 313 314 316 318 320 322 324 325 326 326 326 326 326 326 327 328 330 330 331 331 331 331 331 331 331 331 331 331 330 328 325 324 323 323
293 293 293 292 291 289 288 287 285 282 279 278 278 281 284 286 287 287 288 289 290 293 295 298 299 300 300 302 303 304 304 306 308 309 308 305 303 303 305 306 307 307 308 309 310 310 309 308 308 308 308 310 312 314 317 320 323 325 327 327 327 327 326 327 327 328 329 330 331 332 333 333 333 333 333 334 334 334 333 333 330 327 325 324 323 322
290 290 289 289 288 287 285 284 282 282 282 285 288 291 291 290 288 287 289 291 295 298 299 300 300 300 300 300 300 300 300 303 306 307 306 305 303 303 305 305 305 305 306 306 307 308 307 307 308 309 309 310 312 315 319 322 324 326 326 326 326 326 327 327 328 329 330 332 333 334 335 335 335 335 335 335 335 335 334 332 330 327 325 324 322 321
288 287 286 285 284 283 282 282 284 287 291 294 296 295 292 288 287 289 293 297 300 301 301 300 300 299 298 296 294 294 295 300 304 306 306 304 303 302 303 303 303 303 303 301 300 300 300 302 305 308 310 312 313 316 320 322 324 325 325 324 324 324 326 328 328 330 332 334 335 336 336 336 336 336 336 336 335 334 333 332 329 326 325 323 321 320
286 285 284 282 281 281 283 286 290 293 295 295 293 291 289 289 292 296 300 302 303 302 301 299 298 297 296 295 293 293 295 299 303 305 304 302 301 300 301 300 300 300 301 299 297 295 294 296 301 306 310 312 314 316 318 322 323 324 323 322 321 323 326 328 329 331 333 334 336 337 337 337 337 336 336 336 335 334 333 331 329 326 324 322 320 319
284 282 280 280 282 286 290 292 293 292 290 288 288 288 291 294 297 301 303 304 304 302 299 297 296 296 296 296 295 295 297 300 303 304 302 300 298 298 298 298 298 298 299 299 298 297 296 296 299 303 307 310 313 315 317 319 322 323 322 320 320 321 325 328 329 331 333 334 335 336 336 336 336 336 336 336 335 334 332 331 329 326 324 322 320 319
282 280 280 282 288 292 293 291 288 286 284 285 288 291 294 298 300 303 304 304 303 301 299 298 297 296 296 295 295 296 297 301 303 303 300 298 296 296 297 296 297 297 298 298 299 299 299 299 300 301 304 306 310 314 317 319 320 320 320 320 321 322 324 327 329 331 332 333 334 334 335 335 335 335 336 335 335 333 332 330 329 327 325 323 321 319
281 282 285 289 291 290 287 283 281 281 283 287 290 294 297 300 301 303 303 303 303 302 301 300 299 298 297 295 294 295 297 301 303 303 301 300 299 298 297 297 298 298 298 298 298 299 299 299 300 301 301 302 305 310 316 320 320 320 320 321 322 324 326 328 330 330 331 331 332 333 333 334 334 334 335 335 334 333 332 330 329 328 327 326 324 322
282 286 288 288 286 283 280 279 279 281 285 290 294 296 299 300 301 302 303 303 303 302 302 301 300 299 298 297 296 297 299 302 304 305 306 306 304 301 299 298 299 298 296 295 296 297 297 298 299 300 300 299 300 305 312 317 320 320 321 323 324 325 327 329 330 330 329 330 331 332 332 333 333 333 334 335 335 334 333 332 331 330 329 328 327 327
285 285 283 280 278 277 277 279 282 285 289 293 296 297 299 300 301 302 302 302 302 301 301 301 301 300 300 299 299 300 302 304 306 308 310 310 308 303 299 297 297 296 294 293 293 294 294 295 296 297 299 299 301 303 307 311 314 317 321 324 326 326 327 328 329 329 329 329 330 331 332 332 332 333 333 334 333 333 332 331 331 331 331 330 331 331
281 278 276 275 276 277 280 283 286 289 292 294 295 296 298 299 300 301 301 301 301 301 301 301 301 301 302 302 303 304 306 307 309 311 312 311 308 304 299 296 295 295 294 293 293 292 292 292 293 293 295 298 301 304 308 309 310 313 318 323 326 327 328 328 328 328 329 329 330 330 331 332 332 332 332 331 330 329 328 328 329 330 331 332 333 334
275 274 275 277 279 281 284 286 289 290 292 293 294 296 297 299 299 300 300 300 300 300 301 302 302 303 304 305 307 308 309 310 311 312 312 311 309 304 299 295 294 295 296 296 294 293 293 292 292 293 294 295 297 301 305 307 309 312 315 317 320 324 329 328 328 328 329 329 329 329 329 331 332 331 330 328 326 324 324 324 326 329 331 331 331 332
275 275 277 280 282 284 286 287 288 289 291 292 294 296 297 298 299 299 299 300 300 301 302 303 305 306 306 308 309 310 311 312 313 314 314 313 311 306 300 297 295 296 297 297 296 295 294 294 293 293 294 294 296 298 301 304 308 311 312 312 314 319 325 327 328 328 328 329 329 329 329 330 329 328 327 325 324 323 324 324 325 327 331 332 331 329
275 277 279 280 282 283 285 286 287 289 290 292 294 296 297 298 299 299 300 300 301 303 305 307 308 310 310 310 311 312 314 315 315 316 316 316 314 310 305 300 298 297 298 297 296 295 294 294 293 292 292 293 294 296 299 304 309 311 310 310 313 317 321 325 328 328 327 327 328 329 329 328 326 325 324 322 322 324 325 326 327 328 330 330 330 329
275 277 278 279 281 283 285 286 288 290 291 292 294 295 296 297 298 299 299 301 302 305 307 310 312 312 312 313 314 314 315 316 316 317 317 318 316 314 308 303 298 296 295 294 294 294 293 292 290 289 289 291 292 294 297 302 308 311 312 312 313 313 314 320 326 329 328 328 328 328 328 326 324 323 322 321 322 324 326 329 331 332 332 331 331 330
276 277 278 279 281 283 285 287 288 290 291 292 293 294 295 296 297 298 299 302 304 307 310 313 314 313 313 313 315 316 317 317 317 318 318 318 317 314 308 301 294 288 286 286 287 288 289 288 287 287 290 292 294 295 297 300 304 308 312 315 314 311 309 315 321 325 326 327 328 328 326 324 322 321 321 321 322 325 328 332 334 335 336 335 333 332
277 278 279 280 282 284 286 287 289 290 291 292 292 293 294 295 297 299 301 304 307 310 313 314 315 313 312 313 315 316 317 318 318 319 319 319 317 314 308 299 289 281 278 276 278 280 283 285 288 292 296 296 294 293 294 297 302 307 313 317 318 316 314 316 319 321 322 324 325 325 324 321 319 318 319 320 324 327 331 334 336 336 337 337 336 334
277 279 281 283 285 286 287 289 290 290 291 291 292 293 294 296 298 301 305 308 310 312 314 314 313 311 310 312 314 317 318 319 319 319 319 319 318 316 310 301 292 284 280 278 278 279 281 285 290 295 297 297 295 294 295 299 303 309 315 319 320 319 318 318 319 320 320 321 320 320 319 318 317 316 318 321 325 330 334 336 336 336 336 337 336 335
283 284 285 286 287 288 289 290 291 291 291 292 292 293 295 299 302 306 309 311 312 313 314 314 312 310 310 311 314 315 316 317 318 319 319 320 319 318 314 308 300 294 290 289 288 288 288 290 292 295 295 295 295 299 305 309 310 312 315 319 320 319 318 318 320 321 320 317 315 314 314 315 316 317 320 324 328 331 335 336 337 337 337 337 337 336
287 287 287 288 289 290 291 292 292 292 292 293 294 296 299 303 307 310 312 313 313 313 313 312 312 311 311 312 314 315 315 315 316 317 318 320 321 320 317 314 309 305 301 299 297 297 296 297 298 298 298 297 298 302 310 317 318 318 319 319 319 319 318 318 319 319 316 313 311 311 312 314 317 320 324 328 330 332 334 335 337 338 339 339 338 336
286 287 288 289 291 292 293 294 294 294 295 297 299 302 304 307 310 312 312 313 313 312 312 311 311 310 310 311 313 315 314 314 314 315 317 319 321 321 319 317 315 312 309 307 306 305 304 304 305 305 306 306 305 307 313 320 322 322 321 320 318 317 316 316 316 315 313 312 312 313 315 318 321 324 328 328 328 329 331 333 336 339 341 340 339 338
285 287 289 291 293 294 295 296 297 298 300 301 304 306 308 310 312 313 313 313 312 311 311 310 310 309 309 310 312 314 314 313 314 314 315 317 319 319 319 319 318 317 316 314 313 312 312 311 312 314 317 317 315 314 316 320 323 323 321 319 317 315 313 313 314 314 314 314 315 317 320 323 327 330 331 329 327 326 328 331 334 338 342 342 340 339
286 289 292 294 295 297 298 298 299 301 302 304 306 308 309 310 312 312 313 312 311 310 310 310 310 309 309 310 312 313 313 312 311 312 314 316 317 317 316 317 318 319 319 318 317 317 317 317 317 319 323 328 325 320 318 318 320 320 319 319 318 317 315 314 315 316 316 317 318 321 324 327 330 332 331 328 325 325 326 328 332 337 342 343 342 340